Weather in Porosozero

Russia / Republic of Karelia     62°43′08″N   32°43′55″E
temp.,
°C
wind,
m/s
gust,
m/s
humid.,
%
clouds,
%
prec.,
mm/h
press.,
hPa
HPBL,
m
2 march, tue
tue200:00−1wnw6158643 0.1 1002676
03:00−2wnw6158524 0.1 1003730
06:00−3nw514850 0.0 1003783
09:00−3nw5138618 0.0 1005836
12:00−2nnw6127122 0.0 10071347
15:00−2nw6116911 0.0 10101436
18:00−5nw413770 0.0 1012799
21:00−6wnw312850 0.0 1012435
3 march, wed
wed300:00−5wnw5139227 0.0 1011477
03:00−5wnw4139258 0.0 1011476
06:00−5wnw4129290 0.0 1009521
09:00−5wnw5129192 0.0 1008607
12:00−2w5108796 0.0 1006669
15:00−2w598597 0.0 1005735
18:00−3wsw389094 0.0 1001470
21:00−4ssw139897 0.4 99987
4 march, thu
thu400:00−3ne2497100 2.1 996142
03:00−5n4993100 4.4 997538
06:00−5n61192100 1.3 993830
09:00−7n51090100 1.4 995632
12:00−6n488395 0.0 997656
15:00−5nnw468591 0.1 999763
18:00−7nnw4992100 0.2 1000550
21:00−8nnw3993100 0.4 1001524
5 march, fri
fri500:00−11nw269686 0.1 1002142
03:00−13wnw269654 0.1 1003137
06:00−14nw259788 0.0 1004136
09:00−13nne489291 0.1 1006495
12:00−13nne488169 0.0 1009635
15:00−11n358064 0.0 1011838
18:00−13nnw2592100 0.1 1011200
21:00−15nw229573 0.1 101221
6 march, sat
sat600:00−16w239610 0.0 101257
03:00−14w379425 0.0 1012208
06:00−13w389699 0.1 1011260
09:00−13w389597 0.1 1009263
12:00−9w369099 0.0 1008362
15:00−7wsw3784100 0.1 1005797
18:00−9ssw3795100 0.2 1003340
21:00−9ssw3895100 0.6 1001424